Location: Chervonnoye
(48.6000°N, 34.4000°E)
Time: 22:23:11
(UTC+00:00)

X-37B - Pass Details

Date: 30 September 2021
Orbit: 385 x 389 km, 45.0° (Epoch: 17 October)

Event Time Altitude Azimuth Distance (km) Brightness Sun altitude
Exits shadow 02:07:05 36° 213° (SSW) 631 1.2 -16.1°
Maximum altitude 02:07:33 39° 188° (S) 597 1.3 -16.0°
Drops below altitude 10° 02:10:33 10° 118° (ESE) 1,413 4.1 -15.6°
Sets 02:12:41 0° 111° (ESE) 2,267 5.4 -15.2°
